Showing default

HBTSS-SV1, 58960

Orbit data source: Space-Track

HBTSS-SV1, 58960 is a payload satellite owned by MDA (US) in LEO that was launched on Wed, 14 Feb 2024 UTC via an FALCON 9 launch vehicle from the Air Force Eastern Test Range (AFETR). Payload-class satellites include a variety of spacecraft equipped with specific instruments for various scientific and technological missions. These include communications satellites like Starlink; space stations such as the ISS; scientific satellites like the Hubble; Earth observation satellites from companies like Planet Labs, Umbra, and HawkEye 360; GPS; miniature CubeSats for education and research; and military/defense satellites.

Loading next visibility...
Identifier
58960, 2024-028F
Orbit
LEO
Country
Flag of USUS
Related business
Manufacturer
L3Harris SIS
Mission
Operational Commercial Early Warn
Bus & Motor
HBT-L3H, Unknown motor
Mass
~1,000 kg wet, ~1,000 kg dry
Launch date (UTC)
2024-02-14 (2 years ago)
Launch vehicle
FALCON 9
Launch site
Air Force Eastern Test Range (AFETR)
Object type
Payload
Rocket body
Debris
Shape & HBR
Box + 2 Pan, 1.0 m
Radar Cross Section
1.012 m², Large (>1 m²)

Expand to show TLE details & history
Last TLE update: 17 hours ago

TLE from 17 hours ago
0 HBTSS-SV1
1 58960U 24028F   25259.10688787  .00000417  00000-0  17793-3 0  9994
2 58960  39.9884 164.8506 0010339 179.8767 180.2007 14.34599314 66836
Epoch: 2025-09-16T02:33Z
TLE epoch observation values (Epoch: 2025-09-16T02:33:55.111Z)
Latitude
-0°
Longitude
131.06903°
Altitude
783.259 km
Speed
7.46 km/s
True Right ascension
10h 59m 24s
True Declination
0° 00' 00"
Sunlit
Object was in daylight at epoch
Visualization orbit readout
Latitude
Unknown
Longitude
Unknown
Altitude
Unknown
Speed
Unknown
Apparent Right ascension
Unknown
Apparent Declination
Unknown
Sunlit
N/A
Visualization observer readout
Local Sidereal Time
12:40:34
Azimuth
Unknown
Elevation
Unknown
Doppler factor
Unknown
Orbital elements
Apogee altitude
786.145 km
Perigee altitude
771.346 km
Semi-major axis
7,156.883 km
Eccentricity
0.00103
Inclination
39.9884°
RAAN
164.8506°
Arg. of periapsis
179.8767°
True anomaly
180.20029°
Mean anomaly
180.2007°
Eccentric anomaly
180.20049°
Mean motion
3.58474 °/min
Orbital period
100.43 mins
BSTAR
0.00017793
Loading maneuver chart data...
Computing Atmospheric mass density...
Loading historical data...
Loading historical data...
Loading historical data...
Loading historical data...
Loading historical data...
Loading historical data...
Loading historical data...
Other satellites on launch #28 in the year 2024 (2024-02-14 UTC)

Documentation

Showing up to 5 results
|